Year,Month,Day,Hour,Minute,Value (Times are PST for temperature in C)
2018,08,22,00,00,23.50
2018,08,22,00,01,23.50
2018,08,22,00,02,23.40
2018,08,22,00,03,23.40
2018,08,22,00,04,23.40
2018,08,22,00,05,23.40
2018,08,22,00,06,23.40
2018,08,22,00,07,23.40
2018,08,22,00,08,23.40
2018,08,22,00,09,23.40
2018,08,22,00,10,23.40
2018,08,22,00,11,23.40
2018,08,22,00,12,23.40
2018,08,22,00,13,23.50
2018,08,22,00,14,23.50
2018,08,22,00,15,23.50
2018,08,22,00,16,23.60
2018,08,22,00,17,23.60
2018,08,22,00,18,23.70
2018,08,22,00,19,23.70
2018,08,22,00,20,23.80
2018,08,22,00,21,23.80
2018,08,22,00,22,23.90
2018,08,22,00,23,23.90
2018,08,22,00,24,24.00
2018,08,22,00,25,24.00
2018,08,22,00,26,24.10
2018,08,22,00,27,24.20
2018,08,22,00,28,24.20
2018,08,22,00,29,24.20
2018,08,22,00,30,24.30
2018,08,22,00,31,24.30
2018,08,22,00,32,24.30
2018,08,22,00,33,24.30
2018,08,22,00,34,24.30
2018,08,22,00,35,24.20
2018,08,22,00,36,24.20
2018,08,22,00,37,24.20
2018,08,22,00,38,24.20
2018,08,22,00,39,24.10
2018,08,22,00,40,24.10
2018,08,22,00,41,24.10
2018,08,22,00,42,24.00
2018,08,22,00,43,23.90
2018,08,22,00,44,23.90
2018,08,22,00,45,23.80
2018,08,22,00,46,23.80
2018,08,22,00,47,23.70
2018,08,22,00,48,23.60
2018,08,22,00,49,23.50
2018,08,22,00,50,23.40
2018,08,22,00,51,23.30
2018,08,22,00,52,23.20
2018,08,22,00,53,23.10
2018,08,22,00,54,23.10
2018,08,22,00,55,23.00
2018,08,22,00,56,22.90
2018,08,22,00,57,22.80
2018,08,22,00,58,22.80
2018,08,22,00,59,22.70
2018,08,22,01,00,22.60
2018,08,22,01,01,22.50
2018,08,22,01,02,22.40
2018,08,22,01,03,22.30
2018,08,22,01,04,22.20
2018,08,22,01,05,22.10
2018,08,22,01,06,22.00
2018,08,22,01,07,21.90
2018,08,22,01,08,21.90
2018,08,22,01,09,21.80
2018,08,22,01,10,21.70
2018,08,22,01,11,21.70
2018,08,22,01,12,21.60
2018,08,22,01,13,21.60
2018,08,22,01,14,21.60
2018,08,22,01,15,21.50
2018,08,22,01,16,21.50
2018,08,22,01,17,21.50
2018,08,22,01,18,21.50
2018,08,22,01,19,21.50
2018,08,22,01,20,21.50
2018,08,22,01,21,21.40
2018,08,22,01,22,21.40
2018,08,22,01,23,21.40
2018,08,22,01,24,21.40
2018,08,22,01,25,21.40
2018,08,22,01,26,21.40
2018,08,22,01,27,21.40
2018,08,22,01,28,21.40
2018,08,22,01,29,21.40
2018,08,22,01,30,21.40
2018,08,22,01,31,21.40
2018,08,22,01,32,21.30
2018,08,22,01,33,21.30
2018,08,22,01,34,21.30
2018,08,22,01,35,21.30
2018,08,22,01,36,21.30
2018,08,22,01,37,21.30
2018,08,22,01,38,21.40
2018,08,22,01,39,21.40
2018,08,22,01,40,21.50
2018,08,22,01,41,21.50
2018,08,22,01,42,21.60
2018,08,22,01,43,21.60
2018,08,22,01,44,21.60
2018,08,22,01,45,21.60
2018,08,22,01,46,21.60
2018,08,22,01,47,21.60
2018,08,22,01,48,21.70
2018,08,22,01,49,21.70
2018,08,22,01,50,21.70
2018,08,22,01,51,21.70
2018,08,22,01,52,21.70
2018,08,22,01,53,21.80
2018,08,22,01,54,21.80
2018,08,22,01,55,21.80
2018,08,22,01,56,21.80
2018,08,22,01,57,21.80
2018,08,22,01,58,21.90
2018,08,22,01,59,21.90
2018,08,22,02,00,21.90
2018,08,22,02,01,21.90
2018,08,22,02,02,21.90
2018,08,22,02,03,21.90
2018,08,22,02,04,21.90
2018,08,22,02,05,21.90
2018,08,22,02,06,21.90
2018,08,22,02,07,22.00
2018,08,22,02,08,22.00
2018,08,22,02,09,22.00
2018,08,22,02,10,22.10
2018,08,22,02,11,22.10
2018,08,22,02,12,22.10
2018,08,22,02,13,22.20
2018,08,22,02,14,22.20
2018,08,22,02,15,22.20
2018,08,22,02,16,22.20
2018,08,22,02,17,22.20
2018,08,22,02,18,22.20
2018,08,22,02,19,22.20
2018,08,22,02,20,22.20
2018,08,22,02,21,22.30
2018,08,22,02,22,22.30
2018,08,22,02,23,22.30
2018,08,22,02,24,22.30
2018,08,22,02,25,22.30
2018,08,22,02,26,22.30
2018,08,22,02,27,22.30
2018,08,22,02,28,22.30
2018,08,22,02,29,22.30
2018,08,22,02,30,22.30
2018,08,22,02,31,22.30
2018,08,22,02,32,22.30
2018,08,22,02,33,22.40
2018,08,22,02,34,22.40
2018,08,22,02,35,22.40
2018,08,22,02,36,22.40
2018,08,22,02,37,22.40
2018,08,22,02,38,22.40
2018,08,22,02,39,22.40
2018,08,22,02,40,22.40
2018,08,22,02,41,22.40
2018,08,22,02,42,22.40
2018,08,22,02,43,22.40
2018,08,22,02,44,22.40
2018,08,22,02,45,22.40
2018,08,22,02,46,22.40
2018,08,22,02,47,22.40
2018,08,22,02,48,22.40
2018,08,22,02,49,22.40
2018,08,22,02,50,22.40
2018,08,22,02,51,22.40
2018,08,22,02,52,22.30
2018,08,22,02,53,22.30
2018,08,22,02,54,22.30
2018,08,22,02,55,22.30
2018,08,22,02,56,22.30
2018,08,22,02,57,22.30
2018,08,22,02,58,22.30
2018,08,22,02,59,22.30
2018,08,22,03,00,22.30
2018,08,22,03,01,22.30
2018,08,22,03,02,22.30
2018,08,22,03,03,22.20
2018,08,22,03,04,22.20
2018,08,22,03,05,22.20
2018,08,22,03,06,22.20
2018,08,22,03,07,22.10
2018,08,22,03,08,22.10
2018,08,22,03,09,22.10
2018,08,22,03,10,22.00
2018,08,22,03,11,22.00
2018,08,22,03,12,21.90
2018,08,22,03,13,21.90
2018,08,22,03,14,21.80
2018,08,22,03,15,21.80
2018,08,22,03,16,21.80
2018,08,22,03,17,21.80
2018,08,22,03,18,21.70
2018,08,22,03,19,21.70
2018,08,22,03,20,21.70
2018,08,22,03,21,21.70
2018,08,22,03,22,21.60
2018,08,22,03,23,21.60
2018,08,22,03,24,21.60
2018,08,22,03,25,21.60
2018,08,22,03,26,21.50
2018,08,22,03,27,21.50
2018,08,22,03,28,21.50
2018,08,22,03,29,21.50
2018,08,22,03,30,21.50
2018,08,22,03,31,21.50
2018,08,22,03,32,21.50
2018,08,22,03,33,21.60
2018,08,22,03,34,21.60
2018,08,22,03,35,21.60
2018,08,22,03,36,21.60
2018,08,22,03,37,21.60
2018,08,22,03,38,21.60
2018,08,22,03,39,21.70
2018,08,22,03,40,21.70
2018,08,22,03,41,21.70
2018,08,22,03,42,21.80
2018,08,22,03,43,21.80
2018,08,22,03,44,21.80
2018,08,22,03,45,21.80
2018,08,22,03,46,21.80
2018,08,22,03,47,21.80
2018,08,22,03,48,21.80
2018,08,22,03,49,21.80
2018,08,22,03,50,21.80
2018,08,22,03,51,21.80
2018,08,22,03,52,21.80
2018,08,22,03,53,21.70
2018,08,22,03,54,21.70
2018,08,22,03,55,21.70
2018,08,22,03,56,21.70
2018,08,22,03,57,21.70
2018,08,22,03,58,21.70
2018,08,22,03,59,21.60
2018,08,22,04,00,21.60
2018,08,22,04,01,21.60
2018,08,22,04,02,21.60
2018,08,22,04,03,21.60
2018,08,22,04,04,21.60
2018,08,22,04,05,21.60
2018,08,22,04,06,21.60
2018,08,22,04,07,21.60
2018,08,22,04,08,21.60
2018,08,22,04,09,21.60
2018,08,22,04,10,21.60
2018,08,22,04,11,21.60
2018,08,22,04,12,21.60
2018,08,22,04,13,21.60
2018,08,22,04,14,21.60
2018,08,22,04,15,21.50
2018,08,22,04,16,21.50
2018,08,22,04,17,21.50
2018,08,22,04,18,21.50
2018,08,22,04,19,21.40
2018,08,22,04,20,21.40
2018,08,22,04,21,21.40
2018,08,22,04,22,21.40
2018,08,22,04,23,21.40
2018,08,22,04,24,21.40
2018,08,22,04,25,21.40
2018,08,22,04,26,21.40
2018,08,22,04,27,21.40
2018,08,22,04,28,21.40
2018,08,22,04,29,21.40
2018,08,22,04,30,21.40
2018,08,22,04,31,21.40
2018,08,22,04,32,21.40
2018,08,22,04,33,21.40
2018,08,22,04,34,21.40
2018,08,22,04,35,21.40
2018,08,22,04,36,21.30
2018,08,22,04,37,21.30
2018,08,22,04,38,21.30
2018,08,22,04,39,21.30
2018,08,22,04,40,21.30
2018,08,22,04,41,21.30
2018,08,22,04,42,21.30
2018,08,22,04,43,21.30
2018,08,22,04,44,21.30
2018,08,22,04,45,21.30
2018,08,22,04,46,21.30
2018,08,22,04,47,21.30
2018,08,22,04,48,21.30
2018,08,22,04,49,21.30
2018,08,22,04,50,21.30
2018,08,22,04,51,21.30
2018,08,22,04,52,21.20
2018,08,22,04,53,21.20
2018,08,22,04,54,21.20
2018,08,22,04,55,21.20
2018,08,22,04,56,21.20
2018,08,22,04,57,21.20
2018,08,22,04,58,21.20
2018,08,22,04,59,21.10
2018,08,22,05,00,21.10
2018,08,22,05,01,21.10
2018,08,22,05,02,21.10
2018,08,22,05,03,21.10
2018,08,22,05,04,21.10
2018,08,22,05,05,21.10
2018,08,22,05,06,21.00
2018,08,22,05,07,21.00
2018,08,22,05,08,21.00
2018,08,22,05,09,20.90
2018,08,22,05,10,20.90
2018,08,22,05,11,20.90
2018,08,22,05,12,20.90
2018,08,22,05,13,20.90
2018,08,22,05,14,20.80
2018,08,22,05,15,20.80
2018,08,22,05,16,20.80
2018,08,22,05,17,20.80
2018,08,22,05,18,20.80
2018,08,22,05,19,20.80
2018,08,22,05,20,20.80
2018,08,22,05,21,20.80
2018,08,22,05,22,20.80
2018,08,22,05,23,20.80
2018,08,22,05,24,20.80
2018,08,22,05,25,20.80
2018,08,22,05,26,20.80
2018,08,22,05,27,20.70
2018,08,22,05,28,20.80
2018,08,22,05,29,20.80
2018,08,22,05,30,20.80
2018,08,22,05,31,20.80
2018,08,22,05,32,20.80
2018,08,22,05,33,20.80
2018,08,22,05,34,20.80
2018,08,22,05,35,20.80
2018,08,22,05,36,20.80
2018,08,22,05,37,20.80
2018,08,22,05,38,20.80
2018,08,22,05,39,20.80
2018,08,22,05,40,20.80
2018,08,22,05,41,20.80
2018,08,22,05,42,20.80
2018,08,22,05,43,20.80
2018,08,22,05,44,20.70
2018,08,22,05,45,20.70
2018,08,22,05,46,20.70
2018,08,22,05,47,20.70
2018,08,22,05,48,20.70
2018,08,22,05,49,20.70
2018,08,22,05,50,20.70
2018,08,22,05,51,20.70
2018,08,22,05,52,20.70
2018,08,22,05,53,20.70
2018,08,22,05,54,20.80
2018,08,22,05,55,20.80
2018,08,22,05,56,20.70
2018,08,22,05,57,20.70
2018,08,22,05,58,20.80
2018,08,22,05,59,20.70
2018,08,22,06,00,20.70
2018,08,22,06,01,20.70
2018,08,22,06,02,20.70
2018,08,22,06,03,20.70
2018,08,22,06,04,20.70
2018,08,22,06,05,20.70
2018,08,22,06,06,20.60
2018,08,22,06,07,20.60
2018,08,22,06,08,20.60
2018,08,22,06,09,20.60
2018,08,22,06,10,20.60
2018,08,22,06,11,20.60
2018,08,22,06,12,20.60
2018,08,22,06,13,20.60
2018,08,22,06,14,20.60
2018,08,22,06,15,20.60
2018,08,22,06,16,20.60
2018,08,22,06,17,20.60
2018,08,22,06,18,20.60
2018,08,22,06,19,20.60
2018,08,22,06,20,20.50
2018,08,22,06,21,20.50
2018,08,22,06,22,20.50
2018,08,22,06,23,20.50
2018,08,22,06,24,20.50
2018,08,22,06,25,20.50
2018,08,22,06,26,20.50
2018,08,22,06,27,20.50
2018,08,22,06,28,20.50
2018,08,22,06,29,20.50
2018,08,22,06,30,20.50
2018,08,22,06,31,20.50
2018,08,22,06,32,20.50
2018,08,22,06,33,20.40
2018,08,22,06,34,20.40
2018,08,22,06,35,20.40
2018,08,22,06,36,20.40
2018,08,22,06,37,20.40
2018,08,22,06,38,20.40
2018,08,22,06,39,20.30
2018,08,22,06,40,20.30
2018,08,22,06,41,20.30
2018,08,22,06,42,20.30
2018,08,22,06,43,20.30
2018,08,22,06,44,20.20
2018,08,22,06,45,20.20
2018,08,22,06,46,20.20
2018,08,22,06,47,20.20
2018,08,22,06,48,20.20
2018,08,22,06,49,20.20
2018,08,22,06,50,20.20
2018,08,22,06,51,20.20
2018,08,22,06,52,20.20
2018,08,22,06,53,20.20
2018,08,22,06,54,20.10
2018,08,22,06,55,20.10
2018,08,22,06,56,20.10
2018,08,22,06,57,20.10
2018,08,22,06,58,20.10
2018,08,22,06,59,20.10
2018,08,22,07,00,20.10
2018,08,22,07,01,20.20
2018,08,22,07,02,20.20
2018,08,22,07,03,20.20
2018,08,22,07,04,20.20
2018,08,22,07,05,20.20
2018,08,22,07,06,20.20
2018,08,22,07,07,20.20
2018,08,22,07,08,20.20
2018,08,22,07,09,20.20
2018,08,22,07,10,20.30
2018,08,22,07,11,20.30
2018,08,22,07,12,20.30
2018,08,22,07,13,20.40
2018,08,22,07,14,20.40
2018,08,22,07,15,20.40
2018,08,22,07,16,20.40
2018,08,22,07,17,20.40
2018,08,22,07,18,20.50
2018,08,22,07,19,20.50
2018,08,22,07,20,20.50
2018,08,22,07,21,20.50
2018,08,22,07,22,20.50
2018,08,22,07,23,20.60
2018,08,22,07,24,20.60
2018,08,22,07,25,20.60
2018,08,22,07,26,20.60
2018,08,22,07,27,20.60
2018,08,22,07,28,20.60
2018,08,22,07,29,20.60
2018,08,22,07,30,20.60
2018,08,22,07,31,20.60
2018,08,22,07,32,20.60
2018,08,22,07,33,20.60
2018,08,22,07,34,20.60
2018,08,22,07,35,20.70
2018,08,22,07,36,20.70
2018,08,22,07,37,20.70
2018,08,22,07,38,20.70
2018,08,22,07,39,20.70
2018,08,22,07,40,20.70
2018,08,22,07,41,20.70
2018,08,22,07,42,20.70
2018,08,22,07,43,20.70
2018,08,22,07,44,20.80
2018,08,22,07,45,20.80
2018,08,22,07,46,20.80
2018,08,22,07,47,20.80
2018,08,22,07,48,20.80
2018,08,22,07,49,20.80
2018,08,22,07,50,20.80
2018,08,22,07,51,20.80
2018,08,22,07,52,20.80
2018,08,22,07,53,20.90
2018,08,22,07,54,20.90
2018,08,22,07,55,20.90
2018,08,22,07,56,20.90
2018,08,22,07,57,20.90
2018,08,22,07,58,20.90
2018,08,22,07,59,21.00
2018,08,22,08,00,21.00
2018,08,22,08,01,21.00
2018,08,22,08,02,21.00
2018,08,22,08,03,21.10
2018,08,22,08,04,21.10
2018,08,22,08,05,21.10
2018,08,22,08,06,21.10
2018,08,22,08,07,21.10
2018,08,22,08,08,21.10
2018,08,22,08,09,21.10
2018,08,22,08,10,21.10
2018,08,22,08,11,21.20
2018,08,22,08,12,21.20
2018,08,22,08,13,21.20
2018,08,22,08,14,21.20
2018,08,22,08,15,21.20
2018,08,22,08,16,21.20
2018,08,22,08,17,21.20
2018,08,22,08,18,21.20
2018,08,22,08,19,21.20
2018,08,22,08,20,21.20
2018,08,22,08,21,21.20
2018,08,22,08,22,21.20
2018,08,22,08,23,21.30
2018,08,22,08,24,21.30
2018,08,22,08,25,21.30
2018,08,22,08,26,21.40
2018,08,22,08,27,21.40
2018,08,22,08,28,21.40
2018,08,22,08,29,21.50
2018,08,22,08,30,21.50
2018,08,22,08,31,21.60
2018,08,22,08,32,21.60
2018,08,22,08,33,21.70
2018,08,22,08,34,21.70
2018,08,22,08,35,21.80
2018,08,22,08,36,21.80
2018,08,22,08,37,21.80
2018,08,22,08,38,21.90
2018,08,22,08,39,22.00
2018,08,22,08,40,22.00
2018,08,22,08,41,22.10
2018,08,22,08,42,22.10
2018,08,22,08,43,22.20
2018,08,22,08,44,22.20
2018,08,22,08,45,22.30
2018,08,22,08,46,22.30
2018,08,22,08,47,22.30
2018,08,22,08,48,22.40
2018,08,22,08,49,22.40
2018,08,22,08,50,22.40
2018,08,22,08,51,22.40
2018,08,22,08,52,22.40
2018,08,22,08,53,22.40
2018,08,22,08,54,22.50
2018,08,22,08,55,22.50
2018,08,22,08,56,22.50
2018,08,22,08,57,22.60
2018,08,22,08,58,22.60
2018,08,22,08,59,22.60
2018,08,22,09,00,22.60
2018,08,22,09,01,22.70
2018,08,22,09,02,22.70
2018,08,22,09,03,22.70
2018,08,22,09,04,22.70
2018,08,22,09,05,22.70
2018,08,22,09,06,22.80
2018,08,22,09,07,22.80
2018,08,22,09,08,22.80
2018,08,22,09,09,22.80
2018,08,22,09,10,22.80
2018,08,22,09,11,22.80
2018,08,22,09,12,22.80
2018,08,22,09,13,22.80
2018,08,22,09,14,22.80
2018,08,22,09,15,22.80
2018,08,22,09,16,22.80
2018,08,22,09,17,22.80
2018,08,22,09,18,22.80
2018,08,22,09,19,22.80
2018,08,22,09,20,22.80
2018,08,22,09,21,22.80
2018,08,22,09,22,22.80
2018,08,22,09,23,22.80
2018,08,22,09,24,22.80
2018,08,22,09,25,22.80
2018,08,22,09,26,22.80
2018,08,22,09,27,22.80
2018,08,22,09,28,22.80
2018,08,22,09,29,22.80
2018,08,22,09,30,22.80
2018,08,22,09,31,22.80
2018,08,22,09,32,22.80
2018,08,22,09,33,22.80
2018,08,22,09,34,22.80
2018,08,22,09,35,22.70
2018,08,22,09,36,22.70
2018,08,22,09,37,22.60
2018,08,22,09,38,22.60
2018,08,22,09,39,22.60
2018,08,22,09,40,22.50
2018,08,22,09,41,22.50
2018,08,22,09,42,22.50
2018,08,22,09,43,22.50
2018,08,22,09,44,22.60
2018,08,22,09,45,22.60
2018,08,22,09,46,22.60
2018,08,22,09,47,22.60
2018,08,22,09,48,22.60
2018,08,22,09,49,22.70
2018,08,22,09,50,22.80
2018,08,22,09,51,22.90
2018,08,22,09,52,23.00
2018,08,22,09,53,23.00
2018,08,22,09,54,23.10
2018,08,22,09,55,23.20
2018,08,22,09,56,23.30
2018,08,22,09,57,23.40
2018,08,22,09,58,23.40
2018,08,22,09,59,23.50
2018,08,22,10,00,23.50
2018,08,22,10,01,23.60
2018,08,22,10,02,23.50
2018,08,22,10,03,23.50
2018,08,22,10,04,23.50
2018,08,22,10,05,23.50
2018,08,22,10,06,23.50
2018,08,22,10,07,23.40
2018,08,22,10,08,23.40
2018,08,22,10,09,23.40
2018,08,22,10,10,23.40
2018,08,22,10,11,23.40
2018,08,22,10,12,23.40
2018,08,22,10,13,23.40
2018,08,22,10,14,23.50
2018,08,22,10,15,23.50
2018,08,22,10,16,23.50
2018,08,22,10,17,23.50
2018,08,22,10,18,23.50
2018,08,22,10,19,23.50
2018,08,22,10,20,23.50
2018,08,22,10,21,23.60
2018,08,22,10,22,23.60
2018,08,22,10,23,23.60
2018,08,22,10,24,23.60
2018,08,22,10,25,23.70
2018,08,22,10,26,23.70
2018,08,22,10,27,23.70
2018,08,22,10,28,23.70
2018,08,22,10,29,23.70
2018,08,22,10,30,23.70
2018,08,22,10,31,23.70
2018,08,22,10,32,23.80
2018,08,22,10,33,23.80
2018,08,22,10,34,23.80
2018,08,22,10,35,23.80
2018,08,22,10,36,23.80
2018,08,22,10,37,23.80
2018,08,22,10,38,23.80
2018,08,22,10,39,23.90
2018,08,22,10,40,23.90
2018,08,22,10,41,23.90
2018,08,22,10,42,23.90
2018,08,22,10,43,24.00
2018,08,22,10,44,24.10
2018,08,22,10,45,24.10
2018,08,22,10,46,24.20
2018,08,22,10,47,24.30
2018,08,22,10,48,24.30
2018,08,22,10,49,24.30
2018,08,22,10,50,24.30
2018,08,22,10,51,24.40
2018,08,22,10,52,24.40
2018,08,22,10,53,24.30
2018,08,22,10,54,24.30
2018,08,22,10,55,24.40
2018,08,22,10,56,24.40
2018,08,22,10,57,24.40
2018,08,22,10,58,24.40
2018,08,22,10,59,24.40
2018,08,22,11,00,24.40
2018,08,22,11,01,24.40
2018,08,22,11,02,24.40
2018,08,22,11,03,24.50
2018,08,22,11,04,24.50
2018,08,22,11,05,24.50
2018,08,22,11,06,24.50
2018,08,22,11,07,24.60
2018,08,22,11,08,24.60
2018,08,22,11,09,24.70
2018,08,22,11,10,24.70
2018,08,22,11,11,24.70
2018,08,22,11,12,24.80
2018,08,22,11,13,24.80
2018,08,22,11,14,24.80
2018,08,22,11,15,24.80
2018,08,22,11,16,24.80
2018,08,22,11,17,24.80
2018,08,22,11,18,24.80
2018,08,22,11,19,24.80
2018,08,22,11,20,24.80
2018,08,22,11,21,24.80
2018,08,22,11,22,24.90
2018,08,22,11,23,24.90
2018,08,22,11,24,24.90
2018,08,22,11,25,24.90
2018,08,22,11,26,24.90
2018,08,22,11,27,24.90
2018,08,22,11,28,24.90
2018,08,22,11,29,24.90
2018,08,22,11,30,25.00
2018,08,22,11,31,25.00
2018,08,22,11,32,25.10
2018,08,22,11,33,25.10
2018,08,22,11,34,25.10
2018,08,22,11,35,25.20
2018,08,22,11,36,25.20
2018,08,22,11,37,25.30
2018,08,22,11,38,25.30
2018,08,22,11,39,25.40
2018,08,22,11,40,25.40
2018,08,22,11,41,25.40
2018,08,22,11,42,25.40
2018,08,22,11,43,25.40
2018,08,22,11,44,25.30
2018,08,22,11,45,25.30
2018,08,22,11,46,25.30
2018,08,22,11,47,25.30
2018,08,22,11,48,25.30
2018,08,22,11,49,25.30
2018,08,22,11,50,25.40
2018,08,22,11,51,25.40
2018,08,22,11,52,25.30
2018,08,22,11,53,25.30
2018,08,22,11,54,25.20
2018,08,22,11,55,25.20
2018,08,22,11,56,25.20
2018,08,22,11,57,25.10
2018,08,22,11,58,25.10
2018,08,22,11,59,25.10
2018,08,22,12,00,25.10
2018,08,22,12,01,25.20
2018,08,22,12,02,25.20
2018,08,22,12,03,25.20
2018,08,22,12,04,25.20
2018,08,22,12,05,25.10
2018,08,22,12,06,25.10
2018,08,22,12,07,25.20
2018,08,22,12,08,25.10
2018,08,22,12,09,25.10
2018,08,22,12,10,25.10
2018,08,22,12,11,25.10
2018,08,22,12,12,25.10
2018,08,22,12,13,25.10
2018,08,22,12,14,25.20
2018,08,22,12,15,25.20
2018,08,22,12,16,25.30
2018,08,22,12,17,25.30
2018,08,22,12,18,25.40
2018,08,22,12,19,25.40
2018,08,22,12,20,25.40
2018,08,22,12,21,25.40
2018,08,22,12,22,25.40
2018,08,22,12,23,25.40
2018,08,22,12,24,25.40
2018,08,22,12,25,25.50
2018,08,22,12,26,25.50
2018,08,22,12,27,25.60
2018,08,22,12,28,25.60
2018,08,22,12,29,25.60
2018,08,22,12,30,25.60
2018,08,22,12,31,25.60
2018,08,22,12,32,25.60
2018,08,22,12,33,25.50
2018,08,22,12,34,25.50
2018,08,22,12,35,25.40
2018,08,22,12,36,25.40
2018,08,22,12,37,25.40
2018,08,22,12,38,25.40
2018,08,22,12,39,25.40
2018,08,22,12,40,25.40
2018,08,22,12,41,25.40
2018,08,22,12,42,25.30
2018,08,22,12,43,25.30
2018,08,22,12,44,25.30
2018,08,22,12,45,25.30
2018,08,22,12,46,25.30
2018,08,22,12,47,25.30
2018,08,22,12,48,25.40
2018,08,22,12,49,25.40
2018,08,22,12,50,25.50
2018,08,22,12,51,25.60
2018,08,22,12,52,25.60
2018,08,22,12,53,25.70
2018,08,22,12,54,25.70
2018,08,22,12,55,25.70
2018,08,22,12,56,25.70
2018,08,22,12,57,25.70
2018,08,22,12,58,25.80
2018,08,22,12,59,25.80
2018,08,22,13,00,25.80
2018,08,22,13,01,25.90
2018,08,22,13,02,25.90
2018,08,22,13,03,26.00
2018,08,22,13,04,26.00
2018,08,22,13,05,26.00
2018,08,22,13,06,26.10
2018,08,22,13,07,26.00
2018,08,22,13,08,26.00
2018,08,22,13,09,26.00
2018,08,22,13,10,26.00
2018,08,22,13,11,26.00
2018,08,22,13,12,26.10
2018,08,22,13,13,26.10
2018,08,22,13,14,26.10
2018,08,22,13,15,26.10
2018,08,22,13,16,26.20
2018,08,22,13,17,26.20
2018,08,22,13,18,26.30
2018,08,22,13,19,26.20
2018,08,22,13,20,26.20
2018,08,22,13,21,26.20
2018,08,22,13,22,26.20
2018,08,22,13,23,26.20
2018,08,22,13,24,26.20
2018,08,22,13,25,26.20
2018,08,22,13,26,26.20
2018,08,22,13,27,26.20
2018,08,22,13,28,26.20
2018,08,22,13,29,26.20
2018,08,22,13,30,26.10
2018,08,22,13,31,26.10
2018,08,22,13,32,26.10
2018,08,22,13,33,26.10
2018,08,22,13,34,26.10
2018,08,22,13,35,26.10
2018,08,22,13,36,26.10
2018,08,22,13,37,26.10
2018,08,22,13,38,26.20
2018,08,22,13,39,26.10
2018,08,22,13,40,26.10
2018,08,22,13,41,26.10
2018,08,22,13,42,26.10
2018,08,22,13,43,26.10
2018,08,22,13,44,26.10
2018,08,22,13,45,26.10
2018,08,22,13,46,26.10
2018,08,22,13,47,26.20
2018,08,22,13,48,26.20
2018,08,22,13,49,26.20
2018,08,22,13,50,26.20
2018,08,22,13,51,26.20
2018,08,22,13,52,26.20
2018,08,22,13,53,26.20
2018,08,22,13,54,26.30
2018,08,22,13,55,26.40
2018,08,22,13,56,26.50
2018,08,22,13,57,26.50
2018,08,22,13,58,26.60
2018,08,22,13,59,26.60
2018,08,22,14,00,26.70
2018,08,22,14,01,26.70
2018,08,22,14,02,26.70
2018,08,22,14,03,26.80
2018,08,22,14,04,26.90
2018,08,22,14,05,27.00
2018,08,22,14,06,27.00
2018,08,22,14,07,27.10
2018,08,22,14,08,27.10
2018,08,22,14,09,27.10
2018,08,22,14,10,27.00
2018,08,22,14,11,26.90
2018,08,22,14,12,26.90
2018,08,22,14,13,26.80
2018,08,22,14,14,26.80
2018,08,22,14,15,26.70
2018,08,22,14,16,26.70
2018,08,22,14,17,26.70
2018,08,22,14,18,26.60
2018,08,22,14,19,26.60
2018,08,22,14,20,26.60
2018,08,22,14,21,26.60
2018,08,22,14,22,26.60
2018,08,22,14,23,26.60
2018,08,22,14,24,26.60
2018,08,22,14,25,26.60
2018,08,22,14,26,26.60
2018,08,22,14,27,26.60
2018,08,22,14,28,26.60
2018,08,22,14,29,26.60
2018,08,22,14,30,26.70
2018,08,22,14,31,26.70
2018,08,22,14,32,26.80
2018,08,22,14,33,26.80
2018,08,22,14,34,26.80
2018,08,22,14,35,26.90
2018,08,22,14,36,26.90
2018,08,22,14,37,26.90
2018,08,22,14,38,26.90
2018,08,22,14,39,26.90
2018,08,22,14,40,26.90
2018,08,22,14,41,27.00
2018,08,22,14,42,27.00
2018,08,22,14,43,26.90
2018,08,22,14,44,26.90
2018,08,22,14,45,26.90
2018,08,22,14,46,26.90
2018,08,22,14,47,26.90
2018,08,22,14,48,26.90
2018,08,22,14,49,26.80
2018,08,22,14,50,26.80
2018,08,22,14,51,26.80
2018,08,22,14,52,26.70
2018,08,22,14,53,26.60
2018,08,22,14,54,26.50
2018,08,22,14,55,26.40
2018,08,22,14,56,26.30
2018,08,22,14,57,26.30
2018,08,22,14,58,26.30
2018,08,22,14,59,26.30
2018,08,22,15,00,26.30
2018,08,22,15,01,26.40
2018,08,22,15,02,26.30
2018,08,22,15,03,26.30
2018,08,22,15,04,26.20
2018,08,22,15,05,26.20
2018,08,22,15,06,26.10
2018,08,22,15,07,26.10
2018,08,22,15,08,26.10
2018,08,22,15,09,26.10
2018,08,22,15,10,26.10
2018,08,22,15,11,26.10
2018,08,22,15,12,26.10
2018,08,22,15,13,26.10
2018,08,22,15,14,26.20
2018,08,22,15,15,26.20
2018,08,22,15,16,26.30
2018,08,22,15,17,26.40
2018,08,22,15,18,26.40
2018,08,22,15,19,26.40
2018,08,22,15,20,26.40
2018,08,22,15,21,26.40
2018,08,22,15,22,26.50
2018,08,22,15,23,26.60
2018,08,22,15,24,26.60
2018,08,22,15,25,26.60
2018,08,22,15,26,26.50
2018,08,22,15,27,26.50
2018,08,22,15,28,26.40
2018,08,22,15,29,26.30
2018,08,22,15,30,26.40
2018,08,22,15,31,26.40
2018,08,22,15,32,26.40
2018,08,22,15,33,26.40
2018,08,22,15,34,26.40
2018,08,22,15,35,26.40
2018,08,22,15,36,26.50
2018,08,22,15,37,26.50
2018,08,22,15,38,26.60
2018,08,22,15,39,26.60
2018,08,22,15,40,26.60
2018,08,22,15,41,26.60
2018,08,22,15,42,26.60
2018,08,22,15,43,26.50
2018,08,22,15,44,26.50
2018,08,22,15,45,26.50
2018,08,22,15,46,26.60
2018,08,22,15,47,26.60
2018,08,22,15,48,26.70
2018,08,22,15,49,26.70
2018,08,22,15,50,26.80
2018,08,22,15,51,26.80
2018,08,22,15,52,26.80
2018,08,22,15,53,26.80
2018,08,22,15,54,26.80
2018,08,22,15,55,26.80
2018,08,22,15,56,26.80
2018,08,22,15,57,26.80
2018,08,22,15,58,26.80
2018,08,22,15,59,26.90
2018,08,22,16,00,26.90
2018,08,22,16,01,27.00
2018,08,22,16,02,27.00
2018,08,22,16,03,27.10
2018,08,22,16,04,27.10
2018,08,22,16,05,27.10
2018,08,22,16,06,27.10
2018,08,22,16,07,27.20
2018,08,22,16,08,27.20
2018,08,22,16,09,27.10
2018,08,22,16,10,27.00
2018,08,22,16,11,27.00
2018,08,22,16,12,26.90
2018,08,22,16,13,26.80
2018,08,22,16,14,26.80
2018,08,22,16,15,26.80
2018,08,22,16,16,26.80
2018,08,22,16,17,26.70
2018,08,22,16,18,26.70
2018,08,22,16,19,26.70
2018,08,22,16,20,26.70
2018,08,22,16,21,26.70
2018,08,22,16,22,26.70
2018,08,22,16,23,26.70
2018,08,22,16,24,26.70
2018,08,22,16,25,26.70
2018,08,22,16,26,26.60
2018,08,22,16,27,26.60
2018,08,22,16,28,26.60
2018,08,22,16,29,26.60
2018,08,22,16,30,26.60
2018,08,22,16,31,26.60
2018,08,22,16,32,26.60
2018,08,22,16,33,26.60
2018,08,22,16,34,26.60
2018,08,22,16,35,26.60
2018,08,22,16,36,26.60
2018,08,22,16,37,26.60
2018,08,22,16,38,26.60
2018,08,22,16,39,26.60
2018,08,22,16,40,26.60
2018,08,22,16,41,26.60
2018,08,22,16,42,26.60
2018,08,22,16,43,26.60
2018,08,22,16,44,26.60
2018,08,22,16,45,26.50
2018,08,22,16,46,26.50
2018,08,22,16,47,26.50
2018,08,22,16,48,26.50
2018,08,22,16,49,26.50
2018,08,22,16,50,26.50
2018,08,22,16,51,26.50
2018,08,22,16,52,26.50
2018,08,22,16,53,26.50
2018,08,22,16,54,26.50
2018,08,22,16,55,26.50
2018,08,22,16,56,26.50
2018,08,22,16,57,26.50
2018,08,22,16,58,26.40
2018,08,22,16,59,26.40
2018,08,22,17,00,26.40
2018,08,22,17,01,26.40
2018,08,22,17,02,26.40
2018,08,22,17,03,26.30
2018,08,22,17,04,26.30
2018,08,22,17,05,26.20
2018,08,22,17,06,26.20
2018,08,22,17,07,26.20
2018,08,22,17,08,26.10
2018,08,22,17,09,26.10
2018,08,22,17,10,26.10
2018,08,22,17,11,26.00
2018,08,22,17,12,26.00
2018,08,22,17,13,26.10
2018,08,22,17,14,26.10
2018,08,22,17,15,26.10
2018,08,22,17,16,26.10
2018,08,22,17,17,26.10
2018,08,22,17,18,26.00
2018,08,22,17,19,26.00